FW7648 Weather Reports


time (UTC)temp
C
wind
direction
speed
KPH
gust
KPH
rain 1hr
cm
rain 24hr
cm
rain mn
cm
humidity
%
barometer
mb
20260504110556 8 134 0.0 1.6 0.00 0.00 0.00 76 1013.3
20260504100557 8 0 0.0 1.6 0.00 0.00 0.00 77 1013.6
20260504081556 10 0 0.0 3.2 0.00 0.00 0.00 73 1014.2
20260504081057 10 0 0.0 3.2 0.00 0.00 0.00 73 1014.3
20260504080558 10 0 0.0 3.2 0.00 0.00 0.00 73 1014.5
20260504070111 10 0 0.0 1.6 0.00 0.00 0.00 70 1014.8
20260504050556 11 131 1.6 8.0 0.00 0.00 0.00 63 1015.5
20260504045557 11 0 0.0 9.7 0.00 0.00 0.00 63 1015.9
20260504045055 11 153 0.0 11.3 0.00 0.00 0.00 63 1015.9
20260504044557 10 204 0.0 11.3 0.00 0.00 0.00 68 1016.0
20260504044055 10 0 0.0 4.8 0.00 0.00 0.00 72 1015.9
20260504043555 10 0 0.0 1.6 0.00 0.00 0.00 71 1015.6
20260504043104 10 0 0.0 1.6 0.00 0.00 0.00 71 1015.6
20260504042555 10 0 0.0 4.8 0.00 0.00 0.00 71 1015.4
20260504042057 10 0 0.0 4.8 0.00 0.00 0.00 70 1015.4
20260504041555 10 0 0.0 3.2 0.00 0.00 0.00 71 1015.4
20260504041057 11 0 0.0 0.0 0.00 0.00 0.00 69 1015.4
20260504040557 10 0 0.0 0.0 0.00 0.00 0.00 70 1015.4
20260504040131 10 0 0.0 0.0 0.00 0.00 0.00 72 1015.6
20260504035557 10 0 0.0 0.0 0.00 0.00 0.00 73 1015.5
20260504035100 10 0 0.0 0.0 0.00 0.00 0.00 73 1015.7
20260504034602 10 0 0.0 0.0 0.00 0.00 0.00 71 1015.7
20260504034058 10 0 0.0 1.6 0.00 0.00 0.00 71 1015.6
20260504033558 10 0 0.0 1.6 0.00 0.00 0.00 70 1015.8
20260504033058 10 0 0.0 1.6 0.00 0.00 0.00 70 1015.7
20260504032557 10 0 0.0 0.0 0.00 0.00 0.00 69 1015.7
20260504032102 11 0 0.0 0.0 0.00 0.00 0.00 68 1015.8
20260504031606 11 0 0.0 0.0 0.00 0.00 0.00 67 1015.7
20260504031057 11 0 0.0 0.0 0.00 0.00 0.00 66 1015.7
20260504030557 11 0 0.0 0.0 0.00 0.00 0.00 67 1015.7
20260504030057 11 0 0.0 0.0 0.00 0.00 0.00 67 1015.7
20260504025557 11 0 0.0 0.0 0.00 0.00 0.00 66 1015.7
20260504025058 11 0 0.0 0.0 0.00 0.00 0.00 66 1015.7
20260504024603 11 0 0.0 0.0 0.00 0.00 0.00 66 1015.7
20260504024057 11 0 0.0 0.0 0.00 0.00 0.00 66 1015.7
20260504023557 11 0 0.0 0.0 0.00 0.00 0.00 66 1015.8
20260504023055 11 0 0.0 0.0 0.00 0.00 0.00 65 1015.8
20260504022557 11 0 0.0 0.0 0.00 0.00 0.00 65 1015.8
20260504022057 11 0 0.0 0.0 0.00 0.00 0.00 63 1015.7
20260504021557 11 0 0.0 0.0 0.00 0.00 0.00 62 1015.7
20260504021056 11 0 0.0 1.6 0.00 0.00 0.00 62 1015.6
20260504020600 11 0 0.0 1.6 0.00 0.00 0.00 63 1015.6
20260504020111 11 0 0.0 1.6 0.00 0.00 0.00 62 1015.4
20260504015559 12 244 0.0 0.0 0.00 0.00 0.00 61 1015.4
20260504015057 12 0 0.0 0.0 0.00 0.00 0.00 58 1015.2
20260504014556 12 0 0.0 0.0 0.00 0.00 0.00 58 1015.3
20260504014054 12 0 0.0 0.0 0.00 0.00 0.00 58 1015.3
20260504013557 12 0 0.0 0.0 0.00 0.00 0.00 57 1015.3
20260504013100 12 0 0.0 0.0 0.00 0.00 0.00 58 1015.2
20260504012557 12 0 0.0 0.0 0.00 0.00 0.00 53 1015.3
20260504012057 13 0 0.0 1.6 0.00 0.00 0.00 54 1015.2
20260504011556 13 0 0.0 1.6 0.00 0.00 0.00 50 1015.2
20260504011057 13 0 0.0 0.0 0.00 0.00 0.00 51 1015.2
20260504010556 13 0 0.0 0.0 0.00 0.00 0.00 49 1015.2
20260504010100 13 0 0.0 0.0 0.00 0.00 0.00 48 1015.5
20260504005557 13 0 0.0 0.0 0.00 0.00 0.00 48 1015.6
20260504005057 13 0 0.0 3.2 0.00 0.00 0.00 47 1015.5
20260504004557 14 0 0.0 3.2 0.00 0.00 0.00 47 1015.5
20260504004058 14 244 0.0 1.6 0.00 0.00 0.00 45 1015.6
20260504003557 14 0 0.0 4.8 0.00 0.00 0.00 47 1015.5
20260504003057 14 244 1.6 6.4 0.00 0.00 0.00 44 1015.5
20260504002557 14 0 0.0 6.4 0.00 0.00 0.00 44 1015.6
20260504002057 14 298 0.0 6.4 0.00 0.00 0.00 45 1015.5
20260504001559 15 236 1.6 9.7 0.00 0.00 0.00 44 1015.4
20260504001057 15 298 1.6 11.3 0.00 0.00 0.00 42 1015.5
20260504000557 15 265 3.2 11.3 0.00 0.00 0.00 46 1015.4
20260504000056 15 0 0.0 6.4 0.00 0.00 0.00 45 1015.3
20260503235558 15 200 0.0 1.6 0.00 0.00 0.00 48 1015.5
20260503235100 15 0 0.0 4.8 0.00 0.00 0.00 45 1015.5
20260503234624 15 200 0.0 4.8 0.00 0.00 0.00 43 1015.4
20260503234100 15 200 0.0 4.8 0.00 0.00 0.00 42 1015.4
20260503233557 15 0 0.0 4.8 0.00 0.00 0.00 43 1015.4
20260503233057 15 0 0.0 4.8 0.00 0.00 0.00 41 1015.3
20260503232557 15 0 0.0 8.0 0.00 0.00 0.00 40 1015.3
20260503232057 15 0 0.0 8.0 0.00 0.00 0.00 40 1015.5
20260503231555 15 261 0.0 6.4 0.00 0.00 0.00 40 1015.5
20260503231057 15 259 0.0 3.2 0.00 0.00 0.00 40 1015.6
20260503230600 15 0 0.0 3.2 0.00 0.00 0.00 41 1015.6
20260503230058 15 0 0.0 9.7 0.00 0.00 0.00 41 1015.6
20260503225557 15 0 0.0 9.7 0.00 0.00 0.00 42 1015.8
20260503225058 15 282 1.6 14.5 0.00 0.00 0.00 40 1016.0
20260503224554 16 240 3.2 14.5 0.00 0.00 0.00 40 1015.9
20260503224058 16 227 1.6 9.7 0.00 0.00 0.00 40 1016.0
20260503223557 16 0 0.0 9.7 0.00 0.00 0.00 40 1016.0
20260503223056 16 230 3.2 14.5 0.00 0.00 0.00 41 1016.1
20260503222558 16 270 1.6 14.5 0.00 0.00 0.00 39 1016.1
20260503222057 16 0 4.8 14.5 0.00 0.00 0.00 36 1016.1
20260503221601 16 233 1.6 12.9 0.00 0.00 0.00 36 1016.2
20260503221057 17 277 3.2 11.3 0.00 0.00 0.00 36 1016.2
20260503220558 17 0 3.2 11.3 0.00 0.00 0.00 37 1016.1
20260503220057 17 225 1.6 9.7 0.00 0.00 0.00 38 1016.1
20260503215557 17 129 1.6 8.0 0.00 0.00 0.00 37 1016.1
20260503215056 17 0 3.2 11.3 0.00 0.00 0.00 35 1016.0
20260503214600 17 159 3.2 17.7 0.00 0.00 0.00 38 1016.0
20260503214057 17 239 6.4 17.7 0.00 0.00 0.00 37 1016.1
20260503213557 17 259 1.6 6.4 0.00 0.00 0.00 35 1016.2
20260503213057 17 310 1.6 9.7 0.00 0.00 0.00 37 1016.1
20260503212557 17 257 3.2 12.9 0.00 0.00 0.00 38 1016.2
20260503212058 17 276 4.8 12.9 0.00 0.00 0.00 36 1016.1
20260503211600 17 295 6.4 14.5 0.00 0.00 0.00 37 1016.1
20260503211057 16 202 6.4 14.5 0.00 0.00 0.00 36 1016.1
20260503210557 17 221 6.4 12.9 0.00 0.00 0.00 36 1016.3
20260503210054 17 291 1.6 11.3 0.00 0.00 0.00 35 1016.2
20260503205559 17 296 4.8 19.3 0.00 0.00 0.00 36 1016.4
20260503205058 17 254 4.8 19.3 0.00 0.00 0.00 38 1016.3
20260503204557 17 295 1.6 12.9 0.00 0.00 0.00 38 1016.1
20260503204056 17 298 3.2 12.9 0.00 0.00 0.00 36 1016.3
20260503203556 17 96 3.2 16.1 0.00 0.00 0.00 36 1016.5
20260503203059 17 129 1.6 16.1 0.00 0.00 0.00 35 1016.5
20260503202556 17 240 1.6 19.3 0.00 0.00 0.00 37 1016.6
20260503202057 17 0 6.4 19.3 0.00 0.00 0.00 39 1016.8
20260503201555 17 297 4.8 16.1 0.00 0.00 0.00 38 1016.9
20260503201059 17 273 4.8 16.1 0.00 0.00 0.00 35 1017.0
20260503200557 17 288 8.0 16.1 0.00 0.00 0.00 39 1017.0
20260503200058 17 280 1.6 17.7 0.00 0.00 0.00 38 1017.2
20260503195600 17 166 3.2 17.7 0.00 0.00 0.00 35 1017.3
20260503195057 17 265 4.8 12.9 0.00 0.00 0.00 38 1017.5
20260503194600 17 319 4.8 12.9 0.00 0.00 0.00 36 1017.5
20260503194057 17 223 3.2 12.9 0.00 0.00 0.00 38 1017.8
20260503193557 17 157 3.2 11.3 0.00 0.00 0.00 35 1018.0
20260503193056 17 219 1.6 12.9 0.00 0.00 0.00 37 1018.0
20260503192556 17 281 4.8 12.9 0.00 0.00 0.00 38 1018.1
20260503192057 17 247 3.2 11.3 0.00 0.00 0.00 38 1018.1
20260503191555 16 282 3.2 17.7 0.00 0.00 0.00 40 1018.1
20260503191058 16 127 1.6 17.7 0.00 0.00 0.00 37 1018.2
20260503190559 16 326 1.6 12.9 0.00 0.00 0.00 38 1018.5
20260503190057 16 273 3.2 12.9 0.00 0.00 0.00 37 1018.6
20260503185639 16 175 3.2 11.3 0.00 0.00 0.00 39 1018.7
20260503185101 17 174 1.6 11.3 0.00 0.00 0.00 38 1018.9
20260503184559 16 227 3.2 11.3 0.00 0.00 0.00 42 1019.0
20260503184057 16 223 1.6 11.3 0.00 0.00 0.00 44 1018.9
20260503183558 16 269 4.8 11.3 0.00 0.00 0.00 40 1019.1
20260503183057 15 327 1.6 11.3 0.00 0.00 0.00 41 1019.1
20260503182556 15 263 1.6 14.5 0.00 0.00 0.00 39 1019.2
20260503182057 15 0 3.2 14.5 0.00 0.00 0.00 42 1019.3
20260503181557 15 278 1.6 14.5 0.00 0.00 0.00 42 1019.3
20260503181056 15 279 6.4 12.9 0.00 0.00 0.00 42 1019.5
20260503180555 15 281 3.2 12.9 0.00 0.00 0.00 41 1019.4
20260503180106 15 304 4.8 12.9 0.00 0.00 0.00 44 1019.5
20260503175556 15 262 4.8 12.9 0.00 0.00 0.00 40 1019.7
20260503175056 14 261 6.4 12.9 0.00 0.00 0.00 41 1019.8
20260503174559 13 267 4.8 12.9 0.00 0.00 0.00 44 1019.9
20260503174056 15 269 1.6 9.7 0.00 0.00 0.00 42 1019.9
20260503173557 15 265 3.2 11.3 0.00 0.00 0.00 43 1019.8
20260503173107 15 313 1.6 12.9 0.00 0.00 0.00 43 1020.0
20260503172558 15 0 3.2 12.9 0.00 0.00 0.00 43 1020.0
20260503172057 15 0 4.8 12.9 0.00 0.00 0.00 46 1020.0
20260503171555 15 337 1.6 16.1 0.00 0.00 0.00 50 1019.9
20260503171056 14 242 1.6 16.1 0.00 0.00 0.00 47 1020.2
20260503170557 14 309 6.4 16.1 0.00 0.00 0.00 44 1020.3
20260503150556 12 296 0.0 6.4 0.00 0.00 0.00 54 1021.3
20260503140108 9 0 1.6 11.3 0.00 0.00 0.00 65 1021.6
20260503131055 6 193 3.2 9.7 0.00 0.00 0.00 77 1021.5
20260503130558 6 273 1.6 9.7 0.00 0.00 0.00 78 1021.5